Regional Weather Roundup
Issued by NWS New Orleans/Baton Rouge, LA

Home | Current Version | Previous Version | Text Only | Print | Product List | Glossary Off
Versions: 1 2 3 4 5 6 7 8 9 10 11 12 13 14 15 16 17 18 19 20 21 22 23 24 25 26 27 28 29 30 31 32 33 34 35 36 37 38 39 40 41 42 43 44 45 46 47 48 49 50

967
ASUS44 KLIX 021305
RWRLIX
NEW ORLEANS REGIONAL WEATHER ROUNDUP
NATIONAL WEATHER SERVICE NEW ORLEANS LA
800 AM CDT TUE SEP 02 2014

NOTE: "FAIR" INDICATES FEW OR NO CLOUDS BELOW 12,000 FEET WITH NO
      SIGNIFICANT WEATHER AND/OR OBSTRUCTIONS TO VISIBILITY.
      SKY/WX - SKY CONDITION AND SIGNIFICANT WEATHER.
      TMP - AIR TEMPERATURE.     DP    - DEWPOINT TEMPERATURE.
      RH  - RELATIVE HUMIDITY.   PRES  - PRESSURE.
      HI  - HEAT INDEX.          WCI   - WIND CHILL INDEX.

*  THESE STATIONS ARE NOT NWS OR FAA STATIONS AND ARE NOT UNDER
   NWS QUALITY CONTROL.

LAZ038-040-048-061>063-065>067-069-021400-
SOUTHEAST LOUISIANA

CITY           SKY/WX    TMP DP  RH WIND       PRES   REMARKS
N.O. AUDUBON   NOT AVBL
N.O. INTL ARPT PTSUNNY   81  77  88 SE5       30.06R
N.O. LAKEFRONT MOSUNNY   79  77  94 SE3       30.07R
N.O. DOWNTOWN*   N/A     81  73  78 SE3       30.07R
SLIDELL        LGT RAIN  79  74  84 CALM      30.06R
BATON ROUGE    SUNNY     78  76  93 CALM      30.05R
BOOTHVILLE     MOSUNNY   84  79  85 CALM      30.07R HX  96
BELLE CHASSE   PTSUNNY   80  76  87 CALM      30.06R
BOGALUSA*        N/A     76  73  90 CALM      30.08S
GALLIANO*      NOT AVBL
NEW ROADS*       N/A     78  77  96 SE5       30.04R
GONZALES*        N/A     78  78 100 CALM      30.05R
HAMMOND*       MOSUNNY   77  73  88 CALM      30.08R FOG
HOUMA*         MOSUNNY   81  75  83 N5        30.06R
PORT FOURCHON* MOSUNNY   86  75  70 S6        30.07R HX  95

$$

MSZ070-080>082-021400-
SOUTHERN MISSISSIPPI

CITY           SKY/WX    TMP DP  RH WIND       PRES   REMARKS
MCCOMB         CLOUDY    77  75  93 SE7       30.06S FOG
GULFPORT       MOSUNNY   83  76  79 CALM      30.07R
BILOXI         SUNNY     79  77  91 NE3       30.08R
PASCAGOULA     MOSUNNY   79  77  94 CALM      30.08R

$$

COASTAL OBSERVATIONS
LAKE AND NEARSHORE STATIONS

STATION/POSITION TIME  TEMP    WIND        PRES    WAVE
                       AIR SEA DIR/SP/G            HT/PER
                 (UTC) (F)     (DEG/KT/KT) (MB)    (FT/S)
PASCAGOULA       1300   82     320/  3/  4 1018.0
WAVELAND YACHT   1300   81      50/  4/  5 1017.8
GRAND ISLE       1300   85 84  150/  4/  5 1018.4
SOUTHWEST PASS   1300   85 90  140/  5/  6 1018.1
NEW CANAL        1300   80 81   CALM  /  1 1018.4
SHELL BEACH      1300   81 81  190/  2/  3 1017.9

OFFSHORE STATIONS

STATION/POSITION TIME  TEMP    WIND        PRES    WAVE
                       AIR SEA DIR/SP/G            HT/PER
                 (UTC) (F)     (DEG/KT/KT) (MB)    (FT/S)
64 S DAUPHIN ISL 1205   84 85  150/  6/  6 1018.7

$$




USA.gov is the U.S. government's official web portal to all federal, state and local government web resources and services.